Wind_Speed
14 15 16 17 18 19 19 19 18 17 17 18 20 21 21 20 19 19 20 20 21 23 25 25 25 24 24 24 24 24 24 24 24 25 25 25 26 26 27 27 28 29
15 15 16 16 17 18 18 18 17 17 17 18 19 20 20 19 18 18 19 20 22 23 24 24 24 23 23 22 22 22 23 23 23 24 24 25 25 26 27 28 28 26
16 16 16 16 16 17 17 17 17 17 17 18 19 19 19 18 18 18 20 21 22 23 23 23 22 22 21 20 20 21 21 22 22 22 23 24 25 26 27 26 24 21
17 17 16 16 16 16 17 17 17 17 17 18 19 20 18 18 18 20 21 22 22 22 21 20 20 20 19 19 19 19 20 20 21 21 23 24 25 25 24 21 19 17
18 17 16 16 16 16 17 17 17 17 17 18 19 20 19 18 19 21 21 22 22 21 19 18 17 17 17 17 17 18 18 19 20 21 22 23 23 21 18 16 14 13
18 17 17 16 16 17 17 17 17 17 18 18 19 20 19 19 20 21 21 22 21 18 16 15 15 16 16 16 16 16 17 18 20 21 22 21 18 16 14 12 11 10
18 18 18 17 17 17 17 18 18 18 18 19 19 19 19 19 21 21 21 21 19 16 14 14 14 14 14 14 14 15 16 18 19 20 19 16 13 12 10 9 8 7
19 19 18 17 16 16 17 18 19 19 19 19 19 19 19 19 20 20 20 20 17 15 14 13 13 13 13 13 13 14 15 17 19 19 16 11 9 8 8 6 5 4
19 19 18 17 16 16 17 18 19 19 19 19 19 19 19 19 19 19 19 18 15 14 13 12 12 13 13 12 12 13 14 17 18 16 11 7 6 6 5 4 3 2
19 18 17 17 17 16 17 17 18 18 18 18 18 19 18 18 18 19 19 17 14 13 12 12 12 12 12 11 11 12 14 16 15 12 8 5 4 4 3 2 1 1
19 18 18 18 18 18 17 17 17 17 17 17 18 19 18 17 18 18 18 16 14 13 12 11 12 12 11 10 11 12 13 14 12 8 5 3 3 4 3 2 2 2
18 19 19 20 20 19 18 17 16 16 16 16 17 18 18 17 17 17 16 15 13 12 12 11 12 11 10 10 10 11 13 12 9 6 4 2 3 4 3 3 4 7
18 20 22 22 21 20 19 17 16 16 15 14 15 17 17 17 18 16 14 13 12 12 12 11 11 10 9 9 9 11 11 10 6 4 3 1 3 4 6 8 9 11
19 21 22 21 20 19 18 17 16 15 14 13 14 16 17 17 17 15 13 12 12 11 11 11 11 10 9 8 9 10 10 7 4 2 1 1 5 7 10 12 12 11
19 20 20 19 19 18 17 16 15 14 13 12 13 15 16 17 17 14 11 11 11 11 11 11 10 9 8 8 8 9 9 6 2 0 1 4 9 13 14 13 11 10
19 19 18 18 17 17 15 15 14 13 12 12 13 14 16 16 16 13 11 11 11 10 10 10 10 9 8 7 8 9 8 5 2 2 4 8 13 15 14 12 10 9
17 17 17 18 17 16 15 14 14 13 11 11 12 14 15 15 15 13 11 11 11 11 10 10 9 8 8 8 8 8 7 4 3 4 7 12 15 14 13 11 10 8
16 14 14 16 18 17 15 14 14 12 10 11 12 13 14 14 14 13 11 11 11 11 11 10 9 8 8 8 8 8 7 5 5 7 11 14 15 13 12 11 9 7
16 14 13 15 17 17 15 14 13 11 9 9 11 13 14 13 13 12 11 11 12 12 11 11 10 8 8 8 8 8 7 6 7 9 13 15 14 13 12 10 8 7
17 17 16 17 17 16 14 13 12 10 8 8 10 12 13 12 12 12 12 12 12 12 12 11 10 9 8 8 8 8 7 7 9 11 14 15 14 13 12 10 9 7
18 18 18 17 16 14 13 12 11 10 8 7 8 11 13 12 11 12 12 12 12 13 13 12 11 10 9 8 8 8 8 8 10 12 14 15 14 13 12 11 9 8
20 19 18 18 16 14 12 12 12 11 9 8 8 10 11 12 11 12 12 12 13 13 13 13 12 11 10 9 9 8 9 9 10 13 15 15 14 13 12 11 10 9
22 21 20 19 17 15 14 13 12 12 12 10 9 9 11 11 11 12 13 13 13 13 14 13 12 12 11 10 10 9 9 11 12 13 15 15 14 13 13 12 12 11
22 23 22 20 18 17 15 12 12 14 16 16 12 10 11 12 12 12 14 14 13 14 14 14 13 13 12 12 11 10 10 11 13 14 15 15 15 14 14 14 13 12
22 22 23 21 19 18 16 14 18 22 23 24 22 16 13 14 14 14 14 15 15 14 15 15 14 14 13 13 12 11 10 11 14 15 16 16 16 16 15 15 14 14
22 22 23 22 22 21 18 17 21 23 24 29 31 26 21 17 15 14 14 16 17 16 15 16 15 15 14 14 13 13 12 12 14 17 18 17 17 17 17 16 16 15
Wind_Direction
293 296 298 299 296 291 288 286 287 289 291 293 293 293 293 293 291 289 287 285 282 280 280 280 279 278 279 280 283 285 287 288 290 291 293 295 295 294 293 293 292 292
294 297 298 297 296 292 288 287 288 290 293 294 292 293 293 293 290 286 283 281 282 282 282 281 279 277 278 280 284 286 287 289 291 293 295 297 296 296 296 296 295 293
295 297 298 297 295 292 289 289 290 292 295 295 293 294 294 290 285 281 281 284 288 290 288 283 278 276 277 281 284 286 288 290 293 296 297 298 298 298 298 298 297 296
293 294 296 297 295 292 290 290 291 294 297 296 296 297 295 287 282 282 285 291 297 297 291 282 275 275 277 281 284 286 290 293 295 298 299 299 300 300 299 299 300 299
289 291 294 295 294 293 293 293 295 298 300 299 298 298 295 288 285 286 290 297 301 298 289 278 272 273 277 281 285 289 293 296 298 300 301 301 301 299 300 302 305 305
283 286 291 293 293 293 294 295 298 302 303 301 299 297 294 289 287 289 294 300 301 295 283 273 269 272 277 281 286 292 295 298 300 302 303 302 300 299 304 308 310 309
278 282 288 291 290 291 294 297 300 301 301 300 298 296 292 289 288 290 296 301 299 289 277 269 269 272 277 282 288 294 298 300 303 305 305 303 299 301 308 312 312 310
278 282 286 288 288 290 294 297 299 299 299 299 297 293 289 287 287 291 297 300 294 283 272 268 270 273 277 283 290 296 301 303 306 308 307 301 297 303 308 310 310 308
275 280 284 284 285 288 292 295 297 298 299 298 296 291 287 285 288 292 297 296 288 276 270 270 272 273 278 285 291 298 303 305 308 310 307 297 291 294 298 301 303 303
270 275 277 278 282 286 290 294 296 297 298 298 295 291 287 286 289 293 295 293 283 273 270 271 271 273 279 286 293 301 305 307 310 311 306 289 271 272 274 267 260 249
264 267 270 275 282 287 293 297 298 298 298 297 294 290 288 287 289 293 293 287 280 273 271 270 270 273 280 287 296 303 305 307 311 312 308 281 243 239 232 213 202 150
260 263 269 278 283 289 295 297 297 298 299 297 293 289 288 289 291 292 288 282 277 274 272 270 270 274 280 288 298 304 305 308 312 316 319 285 222 211 198 176 150 132
262 268 274 279 282 287 293 293 293 296 298 295 291 289 289 292 293 290 282 276 274 271 271 270 271 276 281 289 299 303 305 307 312 325 336 278 202 186 164 147 137 130
271 276 278 278 278 283 289 291 291 294 296 294 290 289 292 295 294 287 278 273 270 267 268 269 272 276 281 288 298 302 303 304 307 330 337 188 168 155 146 140 136 131
278 278 276 274 275 281 287 290 292 294 297 296 292 291 295 297 293 285 275 269 266 264 265 268 271 275 279 287 295 299 300 294 285 309 181 166 153 146 143 141 139 135
279 277 275 274 276 281 286 291 293 295 298 298 294 295 299 298 291 283 275 268 263 262 262 265 269 273 277 284 292 296 292 274 234 176 164 158 150 147 147 146 144 140
279 279 279 278 281 285 289 292 294 296 300 301 297 298 301 299 289 281 275 268 262 260 260 263 268 272 275 280 287 290 282 250 207 174 163 159 154 152 153 151 148 144
274 277 280 280 284 289 291 292 293 296 302 304 301 302 304 299 287 280 276 270 262 259 259 263 266 268 271 275 280 284 272 233 199 177 168 165 162 160 159 157 155 150
270 271 274 275 280 286 289 290 292 297 304 307 304 304 306 300 287 280 278 271 262 258 258 261 264 264 266 268 273 277 265 228 198 182 176 173 171 169 167 167 166 162
276 274 273 271 274 281 286 288 291 297 303 307 305 305 307 302 288 281 279 272 263 258 256 259 262 261 261 263 266 269 260 230 203 189 184 183 181 177 176 178 178 176
284 280 277 273 273 276 282 283 285 290 298 303 303 303 306 302 288 278 277 273 264 258 255 256 259 259 257 257 258 261 256 235 210 197 193 192 190 187 186 188 190 190
289 287 285 283 279 277 275 274 273 281 295 304 305 305 307 304 290 276 273 271 264 258 255 254 255 257 255 252 251 252 250 238 218 204 201 200 199 197 196 197 199 200
292 292 291 291 291 284 278 276 275 279 290 299 304 309 314 313 299 280 271 268 264 258 254 253 253 254 254 251 247 245 243 238 225 211 208 209 207 204 205 206 206 207
291 291 290 291 294 290 287 289 291 294 299 299 295 303 319 323 314 293 275 267 263 257 253 253 252 252 253 250 245 240 238 235 229 219 213 214 215 213 212 212 212 212
289 289 287 287 287 287 290 287 279 279 284 283 278 283 303 319 319 306 286 271 263 258 253 252 253 252 252 251 246 238 233 232 230 225 220 218 220 221 219 218 218 219
286 286 285 283 280 281 285 282 271 265 264 266 268 269 278 294 306 307 296 279 267 261 255 252 253 254 253 252 249 241 233 230 229 227 225 223 224 226 225 223 223 224
Height
5781 5780 5780 5779 5779 5778 5777 5777 5777 5776 5776 5775 5774 5773 5772 5772 5772 5771 5769 5768 5767 5766 5765 5764 5763 5762 5761 5760 5760 5759 5759 5758 5757 5756 5755 5754 5753 5751 5750 5749 5748 5747
5779 5779 5779 5778 5777 5776 5776 5775 5775 5775 5774 5773 5772 5771 5770 5770 5769 5768 5767 5766 5765 5764 5762 5761 5760 5759 5759 5758 5758 5757 5756 5755 5755 5754 5753 5751 5750 5748 5747 5745 5744 5743
5778 5777 5777 5776 5776 5775 5774 5774 5773 5773 5772 5771 5770 5769 5769 5768 5767 5766 5765 5764 5763 5761 5760 5758 5757 5756 5756 5756 5756 5755 5754 5753 5752 5751 5750 5749 5747 5745 5744 5742 5741 5740
5775 5775 5775 5775 5774 5773 5773 5772 5771 5771 5770 5769 5768 5767 5767 5766 5765 5763 5762 5761 5760 5758 5757 5756 5755 5754 5754 5754 5754 5753 5752 5751 5750 5749 5748 5746 5745 5743 5741 5740 5739 5738
5773 5773 5773 5773 5772 5771 5771 5770 5770 5769 5768 5767 5766 5765 5764 5763 5762 5761 5760 5759 5757 5755 5754 5753 5752 5752 5752 5752 5752 5751 5750 5749 5748 5747 5746 5744 5742 5741 5739 5738 5737 5736
5772 5771 5771 5770 5770 5769 5768 5768 5767 5767 5766 5765 5764 5763 5762 5761 5760 5759 5758 5757 5755 5753 5752 5751 5751 5751 5751 5751 5750 5749 5748 5747 5746 5745 5744 5742 5740 5739 5738 5737 5736 5735
5770 5769 5768 5768 5767 5766 5766 5765 5764 5764 5763 5763 5762 5761 5760 5758 5757 5757 5756 5754 5752 5751 5750 5749 5749 5749 5749 5749 5748 5747 5747 5745 5744 5743 5741 5740 5738 5737 5736 5736 5735 5734
5768 5767 5766 5765 5765 5764 5763 5762 5762 5761 5761 5760 5760 5759 5758 5756 5755 5755 5753 5752 5750 5749 5748 5748 5748 5748 5748 5747 5746 5746 5745 5744 5742 5741 5739 5738 5737 5736 5736 5735 5734 5734
5765 5765 5764 5763 5763 5762 5761 5760 5759 5759 5758 5758 5757 5757 5756 5755 5753 5752 5751 5750 5748 5747 5747 5747 5747 5747 5746 5746 5745 5744 5744 5742 5741 5739 5738 5737 5736 5735 5735 5735 5734 5734
5763 5762 5762 5761 5761 5760 5758 5758 5757 5756 5755 5755 5755 5754 5754 5753 5751 5750 5749 5747 5746 5746 5746 5746 5746 5745 5745 5744 5744 5743 5742 5741 5740 5738 5737 5736 5735 5735 5735 5735 5734 5734
5760 5760 5760 5759 5759 5757 5756 5755 5754 5753 5753 5753 5752 5752 5751 5751 5750 5748 5746 5745 5744 5744 5744 5745 5744 5744 5744 5743 5742 5742 5741 5740 5738 5737 5736 5735 5735 5735 5735 5735 5735 5735
5758 5758 5757 5757 5756 5755 5754 5753 5752 5751 5750 5750 5750 5749 5749 5749 5747 5746 5745 5743 5743 5743 5743 5743 5743 5743 5742 5742 5741 5741 5740 5739 5738 5736 5735 5735 5734 5735 5735 5735 5735 5736
5756 5756 5755 5755 5754 5753 5752 5751 5750 5749 5748 5748 5747 5747 5747 5746 5745 5744 5743 5742 5742 5742 5742 5742 5742 5742 5741 5741 5740 5740 5739 5738 5737 5736 5735 5734 5734 5735 5735 5736 5736 5737
5754 5753 5753 5752 5752 5751 5750 5748 5748 5747 5746 5745 5745 5745 5745 5744 5743 5742 5741 5741 5740 5740 5741 5741 5741 5740 5740 5740 5740 5739 5738 5737 5736 5736 5735 5734 5734 5735 5736 5737 5738 5738
5752 5751 5750 5750 5750 5749 5748 5747 5746 5745 5744 5743 5743 5743 5743 5742 5741 5740 5740 5739 5739 5739 5739 5739 5739 5739 5739 5739 5739 5738 5738 5737 5736 5735 5735 5735 5735 5736 5737 5738 5739 5739
5750 5749 5748 5747 5747 5746 5746 5745 5744 5743 5742 5742 5741 5741 5741 5740 5739 5738 5738 5738 5738 5738 5738 5738 5738 5738 5738 5738 5738 5737 5737 5737 5736 5735 5735 5735 5736 5737 5738 5739 5740 5740
5748 5747 5746 5745 5744 5744 5743 5743 5742 5741 5741 5740 5739 5739 5739 5738 5737 5737 5737 5736 5736 5737 5737 5737 5737 5737 5737 5737 5737 5737 5736 5736 5736 5736 5735 5736 5737 5738 5738 5739 5740 5740
5745 5744 5744 5743 5742 5741 5741 5741 5740 5740 5739 5739 5738 5737 5737 5737 5736 5735 5735 5735 5735 5735 5736 5736 5736 5736 5736 5736 5736 5736 5736 5736 5736 5736 5736 5736 5737 5738 5739 5739 5740 5741
5742 5742 5741 5740 5740 5739 5739 5739 5738 5738 5737 5737 5737 5736 5736 5735 5735 5734 5734 5734 5734 5734 5735 5735 5735 5735 5736 5736 5736 5735 5735 5736 5736 5736 5736 5736 5737 5738 5738 5739 5740 5740
5740 5739 5739 5738 5738 5737 5737 5737 5737 5736 5735 5735 5735 5735 5734 5734 5733 5733 5733 5733 5733 5733 5733 5734 5734 5734 5734 5735 5735 5735 5735 5735 5735 5736 5736 5736 5737 5738 5738 5739 5740 5740
5737 5737 5737 5737 5736 5735 5735 5735 5735 5734 5733 5733 5733 5733 5732 5732 5732 5732 5732 5732 5732 5732 5732 5732 5733 5733 5733 5733 5734 5734 5734 5734 5735 5735 5736 5736 5737 5737 5738 5739 5739 5740
5736 5735 5735 5735 5734 5733 5732 5732 5732 5732 5732 5731 5731 5731 5731 5730 5730 5730 5730 5731 5731 5731 5731 5731 5731 5731 5732 5732 5733 5733 5733 5733 5734 5735 5735 5736 5736 5737 5737 5738 5739 5739
5734 5733 5733 5733 5733 5732 5731 5730 5730 5730 5730 5730 5730 5729 5729 5729 5729 5729 5729 5729 5729 5729 5729 5729 5729 5730 5730 5730 5731 5732 5732 5732 5733 5734 5734 5735 5736 5736 5737 5737 5738 5738
5732 5731 5731 5731 5731 5731 5730 5729 5729 5729 5729 5729 5728 5728 5728 5727 5727 5727 5727 5727 5728 5728 5728 5728 5728 5728 5728 5729 5729 5730 5731 5731 5732 5732 5733 5734 5735 5735 5736 5736 5737 5737
5729 5729 5729 5729 5729 5729 5729 5728 5727 5728 5728 5727 5726 5726 5726 5726 5726 5726 5725 5726 5726 5726 5726 5726 5726 5726 5726 5727 5727 5728 5729 5730 5730 5731 5732 5733 5733 5734 5735 5735 5736 5736
5726 5726 5726 5726 5726 5726 5727 5726 5725 5725 5726 5723 5722 5724 5724 5724 5724 5724 5724 5724 5724 5724 5724 5724 5724 5724 5724 5725 5725 5726 5727 5728 5728 5729 5730 5731 5732 5733 5733 5734 5735 5735